Location: Hurecourt
(47.9030°N, 6.0653°E)
Time: 10:42:39
(UTC+00:00)

Cosmos 1743 - Pass Details

Date: 14 July 2020
Orbit: 511 x 526 km, 82.6° (Epoch: 05 August)

Event Time Altitude Azimuth Distance (km) Brightness Sun altitude
Exits shadow 03:02:41 - 205° (SSW) 1,921 5.0 -7.2°
Reaches altitude 10° 03:03:09 10° 207° (SSW) 1,735 4.8 -7.1°
Maximum altitude 03:06:51 49° 283° (WNW) 673 3.1 -6.7°
Drops below altitude 10° 03:10:36 10° 359° (N) 1,757 6.0 -6.2°
Sets 03:12:48 0° 5° (N) 2,653 7.1 -5.9°
